STARLINK-5689, 55474

Orbit data source: Space-Track

STARLINK-5689, 55474 is a payload satellite owned by SpaceX/Seattle (US) in LEO that was launched on Thu, 02 Feb 2023 UTC via an FALCON 9 launch vehicle from the Air Force Eastern Test Range (AFETR). Payload-class satellites include a variety of spacecraft equipped with specific instruments for various scientific and technological missions. These include communications satellites like Starlink; space stations such as the ISS; scientific satellites like the Hubble; Earth observation satellites from companies like Planet Labs, Umbra, and HawkEye 360; GPS; miniature CubeSats for education and research; and military/defense satellites.

Loading next visibility...
Identifier
55474, 2023-015AB
Orbit
LEO
Country
Flag of USUS
Related business
Manufacturer
SpaceX/Seattle
Mission
Operational Commercial Communications
Bus & Motor
STARLINK, Unknown motor
Mass
305 kg wet, ~290 kg dry
Launch date (UTC)
2023-02-02 (3 years ago)
Launch vehicle
FALCON 9
Launch site
Air Force Eastern Test Range (AFETR)
Object type
Payload
Rocket body
Debris
Shape & HBR
Box + 1 Pan, 4.4 m
Radar Cross Section
13.562 m², Large (>1 m²)

Expand to show TLE details & history
Last TLE update: 12 hours ago

TLE from 12 hours ago
0 STARLINK-5689
1 55474U 23015AB  25259.13319589 -.00000253  00000-0 -36315-5 0  9993
2 55474  43.0038 207.6899 0001239 267.2098  92.8603 15.02534300144342
Epoch: 2025-09-16T03:11Z
TLE epoch observation values (Epoch: 2025-09-16T03:11:48.124Z)
Latitude
-0.00001°
Longitude
164.4115°
Altitude
558.906 km
Speed
7.584 km/s
True Right ascension
13h 50m 45s
True Declination
0° 00' 00"
Sunlit
Object was in daylight at epoch
Visualization orbit readout
Latitude
Unknown
Longitude
Unknown
Altitude
Unknown
Speed
Unknown
Apparent Right ascension
Unknown
Apparent Declination
Unknown
Sunlit
N/A
Visualization observer readout
Local Sidereal Time
08:16:21
Azimuth
Unknown
Elevation
Unknown
Doppler factor
Unknown
Orbital elements
Apogee altitude
561.868 km
Perigee altitude
560.148 km
Semi-major axis
6,939.145 km
Eccentricity
0.00012
Inclination
43.0038°
RAAN
207.6899°
Arg. of periapsis
267.2098°
True anomaly
92.87448°
Mean anomaly
92.8603°
Eccentric anomaly
92.86739°
Mean motion
3.75478 °/min
Orbital period
95.88 mins
BSTAR
-0.0000036315
Loading maneuver chart data...
Computing Atmospheric mass density...
Loading historical data...
Loading historical data...
Loading historical data...
Loading historical data...
Loading historical data...
Loading historical data...
Loading historical data...

Documentation

Showing up to 5 results
|